User: anonymous   Login
Location: Unspecified
(0.0000°N, 0.0000°E)
Time: 05:31:27
(UTC+00:00)
Language:

LANDSAT 8 - Orbit

View from above orbital plane
View from above orbital plane
View from above satellite
View from above satellite

Ground track
Ground track

The orbit data is extracted from the following two-line orbital elements,

1 39084U 13008A   16042.41583293  .00000221  00000-0  59119-4 0  9998
2 39084  98.2004 113.9986 0001279  92.0919 268.0426 14.57122311159432
Epoch (UTC): 11 February 2016 09:58:47
Eccentricity: 0.0001279
inclination: 98.2004°
perigee height: 701 km
apogee height: 703 km
right ascension of ascending node: 113.9986°
argument of perigee: 92.0919°
revolutions per day: 14.57122311
mean anomaly at epoch: 268.0426°
orbit number at epoch: 15943

The dashed part of the orbit path shows where the satellite is in the earth's shadow,  

DLR